Content
SEND FEEDBACK

Daily
Averages
Monthly
Summary
Turkmenistan

ASHGABAT, TURKMENISTAN


Home > Asia > Turkmenistan
Elevation: 775 feet     Latitude: 37 58N     Longitude: 058 20E

WEATHER
 
SELECT A DAY
Number of Records: 177,096;   Date Range: 3/15/97 - 7/20/14
 
SHARE

PRINT THIS DATA

[ ← Previous Day ]
WEATHER ALMANAC - JANUARY 21, 2014
[ Next Day → ]
[ °C ]   °F
Weather ElementAverageHighLow
Temperature39.1 °F58 °F (11:00 pm) (5:00 pm)
Dewpoint35.5 °F39.2 °F (11:00 am) (7:00 pm)
Humidity86.6 %100 % (6:30 am)33 % (11:00 pm)
Barometer30.17 in30.29 in (11:00 pm)30.12 in (5:00 am)
Wind Speed5 mph11.2 mph (6:30 pm)
Weather ElementAverage
Visibility4.6 mi
Wind DirectionSSW (192 °)

Weather ElementTotal
Precipitation---
Heating Degree Days36 (Base 65)
Averaged from 46 records on January 21, 2014
WEATHER CONDITIONS BREAKOUT
WIND DIRECTION BREAKOUT
WEATHER BY HOUR - JANUARY 21, 2014
[ °C ]   °F
Local TimeTemperatureDewpointHumidityBarometerVisibilityWind DirectionWind SpeedGust SpeedPrecipitationEventsConditions
1:00 AM41.0 °F35.6 °F81 %30.15 in6.2 miWest (280°)4.5 mphMostly Cloudy
2:00 AM42.0 °F36.0 °F72 %30.20 in6.0 miCalmScattered Clouds
2:00 AM41.0 °F35.6 °F81 %30.15 in6.2 miCalmMostly Cloudy
3:00 AM37.4 °F35.6 °F93 %30.15 in6.2 miCalmScattered Clouds
4:00 AM35.6 °F33.8 °F93 %30.15 in5.0 miVariable2.2 mphPartly Cloudy
5:00 AM35.6 °F32.0 °F87 %30.12 in4.3 miSSW (210°)2.2 mphPartly Cloudy
5:00 AM37.0 °F34.0 °F85 %30.17 in6.0 miSSW (210°)2.2 mphScattered Clouds
6:00 AM37.4 °F35.6 °F93 %30.12 inCalmClear
6:30 AM35.6 °F35.6 °F100 %30.12 in0.1 miENE (70°)4.5 mphClear
7:00 AM35.6 °F33.8 °F93 %30.12 in1.0 miNNE (20°)2.2 mphScattered Clouds
7:30 AM35.6 °F35.6 °F100 %30.12 in0.1 miVariable2.2 mphFogFog
8:00 AM35.6 °F33.8 °F93 %30.12 in0.1 miVariable2.2 mphFogFog
8:00 AM35.0 °F34.0 °F94 %30.18 in0.0 miEast (100°)2.2 mphFogHeavy Fog
8:30 AM35.6 °F35.6 °F100 %30.15 in0.1 miVariable2.2 mphFogFog
9:00 AM37.4 °F35.6 °F93 %30.12 in0.1 miVariable2.2 mphFogFog
9:30 AM37.4 °F37.4 °F100 %30.12 in0.2 miEast (80°)4.5 mphFogFog
10:00 AM37.4 °F37.4 °F100 %30.12 in0.3 miEast (100°)4.5 mphFogPatches of Fog
10:30 AM39.2 °F37.4 °F93 %30.15 in1.1 miNE (40°)6.7 mphFogPatches of Fog
11:00 AM39.0 °F37.0 °F88 %30.19 in2.0 miNNE (30°)4.5 mphFogLight Fog
11:00 AM39.2 °F39.2 °F100 %30.15 in3.7 miNNE (20°)6.7 mphMostly Cloudy
11:30 AM41.0 °F37.4 °F87 %30.18 in6.2 miNNE (20°)6.7 mphMostly Cloudy
12:00 PM41.0 °F37.4 °F87 %30.15 in5.6 miNNW (340°)4.5 mphOvercast
12:30 PM41.0 °F37.4 °F87 %30.15 in5.0 miWest (270°)4.5 mphOvercast
1:00 PM41.0 °F37.4 °F87 %30.15 in6.2 miNW (310°)4.5 mphOvercast
1:30 PM42.8 °F37.4 °F81 %30.15 in6.2 miNNW (330°)6.7 mphOvercast
2:00 PM42.0 °F36.0 °F72 %30.19 in6.0 miWNW (300°)6.7 mphOvercast
2:00 PM41.0 °F37.4 °F87 %30.15 in6.2 miNW (310°)6.7 mphOvercast
2:30 PM42.8 °F37.4 °F81 %30.12 in6.2 miWNW (300°)4.5 mphOvercast
3:00 PM42.8 °F37.4 °F81 %30.15 in6.2 miWNW (290°)8.9 mphOvercast
3:30 PM41.0 °F37.4 °F87 %30.15 in6.2 miWNW (300°)8.9 mphOvercast
4:00 PM41.0 °F37.4 °F87 %30.15 in6.2 miWest (280°)8.9 mphOvercast
4:30 PM41.0 °F37.4 °F87 %30.18 in6.2 miWest (270°)8.9 mphOvercast
5:00 PM0.0 °F0.0 °F30.23 in6.0 miWNW (290°)8.9 mphOvercast
5:00 PM41.0 °F37.4 °F87 %30.18 in6.2 miWest (280°)8.9 mphOvercast
5:30 PM41.0 °F37.4 °F87 %30.18 in6.2 miWest (280°)8.9 mphOvercast
6:00 PM41.0 °F37.4 °F87 %30.18 in6.2 miNW (310°)8.9 mphOvercast
6:30 PM41.0 °F37.4 °F87 %30.21 in6.2 miWNW (290°)11.2 mphOvercast
7:00 PM41.0 °F35.6 °F81 %30.21 in5.6 miWest (280°)6.7 mphRainLight Rain
7:30 PM41.0 °F35.6 °F81 %30.24 in5.6 miWNW (300°)6.7 mphOvercast
8:00 PM40.0 °F36.0 °F82 %30.28 in6.0 miWNW (300°)6.7 mphRainLight Rain
8:00 PM41.0 °F35.6 °F81 %30.24 in5.6 miWNW (300°)6.7 mphOvercast
9:00 PM41.0 °F35.6 °F81 %30.24 in6.2 miWNW (300°)4.5 mphOvercast
10:00 PM41.0 °F37.4 °F87 %30.24 in6.2 miNW (310°)4.5 mphOvercast
11:00 PM58.0 °F36.0 °F33 %30.29 in6.0 miWNW (300°)4.5 mphPartly Cloudy
11:00 PM41.0 °F37.4 °F87 %30.24 in6.2 miWNW (300°)4.5 mphOvercast
11:30 PM41.0 °F37.4 °F87 %30.24 in6.2 miNW (320°)4.5 mphOvercast
Hourly data recorded from UTAA, located miles away from Ashgabat, Turkmenistan







STORIES FROM OUR PARTNERS